Valentine, NE

4:08 AM CST on February 25, 2018 (GMT -0600)
Miller Field

Weather History for KVTN - July, 2013

Change the Weather History Date:

Tuesday, July 30, 2013

  Actual Average Record
Temperature  
Mean Temperature 75 °F 75 °F  
Max Temperature 90 °F 89 °F 105 °F (1955)
Min Temperature 60 °F 61 °F 38 °F (1971)
Degree Days  
Heating Degree Days 0 0  
Month to date heating degree days 3 2  
Since 1 June heating degree days 57 63  
Since 1 July heating degree days 3 2  
Cooling Degree Days 10 10  
Month to date cooling degree days 285 292  
Year to date cooling degree days 470 463  
Since 1 June cooling degree days 431 429  
Growing Degree Days 25 (Base 50)    
Moisture  
Dew Point 61 °F    
Average Humidity 67    
Maximum Humidity 100    
Minimum Humidity 34    
Precipitation  
Precipitation 2.18 in 0.10 in 2.18 in (2013)
Month to date precipitation 3.77 3.12  
Year to date precipitation 15.62 13.84  
Snow  
Snow 0.00 in 0.00 in 0.00 in ()
Month to date snowfall 0.0 0.0  
Since 1 June snowfall 0.0 0.0  
Since 1 July snowfall 0.0 0.0  
Snow Depth 0.00 in    
Sea Level Pressure  
Sea Level Pressure 30.07 in    
Wind  
Wind Speed 11 mph (ESE)    
Max Wind Speed 43 mph    
Max Gust Speed 54 mph    
Visibility 5 miles    
Events Fog , Rain , Thunderstorm    
T = Trace of Precipitation, MM = Missing Value Source: NWS Daily Summary

Daily Weather History Graph

Daily Weather History Graph

Search for Another Location

Airport or City:

Trip Planner

Search our weather history database for the weather conditions in past years. The results will help you decide how hot, cold, wet, or windy it might be!

Date:

Astronomy

Jul. 30, 2013 Rise Set
Actual Time 6:31 AM CDT 9:04 PM CDT
Civil Twilight 5:59 AM CDT 9:37 PM CDT
Nautical Twilight 5:18 AM CDT 10:17 PM CDT
Astronomical Twilight 4:33 AM CDT 11:02 PM CDT
Moon 12:51 AM CDT (7/30) 3:26 PM CDT (7/30)
Length of Visible Light 15h 37m
Length of Day
14h 33m
Last Quarter, 41% of the Moon is Illuminated
Jul 30
Last Quarter
Aug 6
New
Aug 14
First Quarter
Aug 20
Full
Aug 28
Last Quarter

Hourly Weather History & Observations

Time (CDT) Temp. Heat Index Dew Point Humidity Pressure Visibility Wind Dir Wind Speed Gust Speed Precip Events Conditions
12:52 AM 64.9 °F - 62.1 °F 90% 30.02 in 9.0 mi SE 5.8 mph - N/A   Clear
1:38 AM 62.6 °F - 62.6 °F 100% 30.07 in 7.0 mi SSE 4.6 mph - N/A   Partly Cloudy
1:52 AM 63.0 °F - 62.1 °F 97% 30.02 in 6.0 mi SSE 4.6 mph - N/A   Scattered Clouds
2:04 AM 62.6 °F - 62.6 °F 100% 30.06 in 6.0 mi SSE 3.5 mph - N/A   Mostly Cloudy
2:52 AM 64.0 °F - 62.1 °F 93% 30.03 in 5.0 mi SSE 3.5 mph - N/A   Overcast
3:16 AM 62.6 °F - 62.6 °F 100% 30.08 in 4.0 mi Calm Calm - N/A   Partly Cloudy
3:52 AM 62.1 °F - 61.0 °F 96% 30.04 in 3.0 mi East 3.5 mph - N/A   Clear
4:17 AM 60.8 °F - 60.8 °F 100% 30.09 in 2.5 mi ENE 4.6 mph - N/A   Clear
4:29 AM 60.8 °F - 60.8 °F 100% 30.08 in 1.8 mi East 5.8 mph - N/A   Partly Cloudy
4:32 AM 60.8 °F - 60.8 °F 100% 30.08 in 0.8 mi East 4.6 mph - N/A   Mist
4:52 AM 60.1 °F - 60.1 °F 100% 30.04 in 0.2 mi East 3.5 mph - N/A Fog Fog
5:24 AM 60.8 °F - 60.8 °F 100% 30.09 in 0.5 mi SE 3.5 mph - N/A Fog Fog
5:52 AM 62.1 °F - 62.1 °F 100% 30.05 in 0.2 mi SSE 4.6 mph - N/A Fog Fog
6:52 AM 62.1 °F - 62.1 °F 100% 30.06 in 0.2 mi South 3.5 mph - N/A Fog Fog
7:52 AM 62.1 °F - 62.1 °F 100% 30.07 in 0.2 mi Calm Calm - N/A Fog Fog
8:52 AM 62.1 °F - 62.1 °F 100% 30.08 in 0.2 mi Calm Calm - N/A Fog Fog
9:26 AM 62.6 °F - 62.6 °F 100% 30.12 in 1.2 mi SE 3.5 mph - N/A   Overcast
9:34 AM 64.4 °F - 62.6 °F 94% 30.12 in 3.0 mi ESE 3.5 mph - N/A   Overcast
9:52 AM 64.0 °F - 63.0 °F 96% 30.09 in 5.0 mi ENE 3.5 mph - N/A   Mostly Cloudy
10:01 AM 66.2 °F - 64.4 °F 94% 30.12 in 7.0 mi ENE 4.6 mph - N/A   Partly Cloudy
10:52 AM 75.9 °F - 64.0 °F 67% 30.07 in 10.0 mi ESE 5.8 mph - N/A   Clear
11:52 AM 81.0 °F 81.7 °F 61.0 °F 50% 30.06 in 10.0 mi ESE 10.4 mph - N/A   Clear
12:52 PM 82.9 °F 82.8 °F 59.0 °F 44% 30.06 in 10.0 mi SSE 9.2 mph - N/A   Clear
1:52 PM 84.9 °F 84.2 °F 57.9 °F 40% 30.04 in 10.0 mi Variable 4.6 mph - N/A   Clear
2:52 PM 88.0 °F 86.9 °F 57.9 °F 36% 30.01 in 10.0 mi SSE 10.4 mph - N/A   Clear
3:52 PM 89.1 °F 88.0 °F 57.9 °F 35% 29.97 in 10.0 mi SSE 15.0 mph 23.0 mph N/A   Partly Cloudy
4:52 PM 86.0 °F 85.0 °F 57.9 °F 38% 29.96 in 10.0 mi South 17.3 mph - N/A   Clear
5:40 PM 71.6 °F - 57.2 °F 60% 30.07 in 9.0 mi ENE 25.3 mph 46.0 mph N/A   Squalls
5:52 PM 72.0 °F - 57.9 °F 61% 30.04 in 10.0 mi NE 16.1 mph 27.6 mph N/A   Mostly Cloudy
6:52 PM 72.0 °F - 61.0 °F 68% 29.99 in 10.0 mi East 29.9 mph 39.1 mph N/A Thunderstorm Thunderstorm
7:09 PM 68.0 °F - 62.6 °F 83% 30.17 in 1.2 mi NW 28.8 mph 44.9 mph 0.00 in Rain , Thunderstorm Light Thunderstorms and Rain
7:12 PM 62.6 °F - 60.8 °F 94% 30.17 in 0.5 mi NW 39.1 mph 50.6 mph 0.00 in Fog , Rain , Thunderstorm Heavy Thunderstorms and Rain
7:17 PM 62.6 °F - 60.8 °F 94% 30.17 in 0.2 mi NNE 9.2 mph 50.6 mph 0.39 in Fog , Rain , Thunderstorm Heavy Thunderstorms and Rain
7:25 PM 62.6 °F - 60.8 °F 94% 30.17 in 0.2 mi North 24.2 mph 38.0 mph 1.28 in Fog , Rain , Thunderstorm Heavy Thunderstorms and Rain
7:41 PM 64.4 °F - - N/A% 30.12 in 0.5 mi NE 36.8 mph 48.3 mph 2.00 in Rain , Thunderstorm Heavy Rain
7:47 PM 64.4 °F - - N/A% 30.08 in 0.5 mi ENE 40.3 mph 54.1 mph 2.12 in Rain , Thunderstorm Heavy Rain
7:52 PM 64.9 °F - - N/A% 30.05 in 1.0 mi East 36.8 mph 54.1 mph 2.12 in Rain , Thunderstorm Light Rain
7:54 PM 64.4 °F - - N/A% 30.08 in 1.2 mi East 35.7 mph 50.6 mph 0.00 in Rain , Thunderstorm Light Rain
7:58 PM 64.4 °F - - N/A% 30.08 in 3.0 mi East 32.2 mph 48.3 mph 0.01 in Rain , Thunderstorm Light Rain
8:12 PM 66.2 °F - - N/A% 30.08 in 10.0 mi ESE 25.3 mph 42.6 mph 0.02 in Thunderstorm Scattered Clouds
8:20 PM 66.2 °F - - N/A% 30.09 in 10.0 mi ESE 21.9 mph 34.5 mph 0.02 in   Partly Cloudy
8:52 PM 66.0 °F - - N/A% 30.06 in 10.0 mi SE 21.9 mph 32.2 mph 0.02 in   Clear
9:52 PM 66.0 °F - - N/A% 30.07 in 10.0 mi SSE 18.4 mph 27.6 mph N/A   Clear
10:52 PM 66.0 °F - 57.9 °F 75% 30.10 in 10.0 mi Calm Calm - N/A   Mostly Cloudy
11:39 PM 66.2 °F - 60.8 °F 83% 30.22 in 6.0 mi SW 16.1 mph 35.7 mph 0.01 in Rain Light Rain
11:52 PM 64.9 °F - 61.0 °F 87% 30.11 in 8.0 mi South 27.6 mph 33.4 mph 0.02 in Rain Light Rain